timestamp,wind_dir_avg,wind_spd_max_dir,wind_spd_avg,wind_spd_gust,battery_voltage,lat,long
2018-11-24 00:00:00+00:00,264.0,258.0,11.56,14.24,,47.59359,-54.27349
2018-11-24 00:10:00+00:00,267.0,266.0,10.82,12.84,,47.59359,-54.27349
2018-11-24 00:20:00+00:00,274.0,273.0,11.34,13.57,,47.59359,-54.27349
2018-11-24 00:30:00+00:00,291.0,298.0,10.34,12.89,,47.59359,-54.27349
2018-11-24 00:40:00+00:00,286.0,283.0,12.5,14.86,,47.59359,-54.27349
2018-11-24 00:50:00+00:00,296.0,298.0,10.06,11.81,,47.59359,-54.27349
2018-11-24 01:00:00+00:00,293.0,303.0,10.28,12.16,,47.59359,-54.27349
2018-11-24 01:10:00+00:00,295.0,285.0,11.88,14.72,,47.59359,-54.27349
2018-11-24 01:20:00+00:00,314.0,311.0,11.86,14.42,,47.59359,-54.27349
2018-11-24 01:30:00+00:00,296.0,294.0,9.65,13.24,,47.59359,-54.27349
2018-11-24 01:40:00+00:00,295.0,293.0,13.59,18.02,,47.59359,-54.27349
2018-11-24 01:50:00+00:00,298.0,297.0,12.83,17.54,,47.59359,-54.27349
2018-11-24 02:00:00+00:00,308.0,312.0,10.66,12.52,,47.59359,-54.27349
2018-11-24 02:10:00+00:00,304.0,307.0,10.21,11.67,,47.59359,-54.27349
2018-11-24 02:20:00+00:00,308.0,311.0,10.39,11.77,,47.59359,-54.27349
2018-11-24 02:30:00+00:00,292.0,289.0,9.11,13.08,,47.59359,-54.27349
2018-11-24 02:40:00+00:00,296.0,294.0,8.85,10.18,,47.59359,-54.27349
2018-11-24 02:50:00+00:00,293.0,289.0,9.6,13.01,,47.59359,-54.27349
2018-11-24 03:00:00+00:00,295.0,297.0,9.71,11.72,,47.59359,-54.27349
2018-11-24 03:10:00+00:00,296.0,304.0,9.91,11.32,,47.59359,-54.27349
2018-11-24 03:20:00+00:00,290.0,285.0,10.48,13.52,,47.59359,-54.27349
2018-11-24 03:30:00+00:00,283.0,280.0,11.76,15.02,,47.59359,-54.27349
2018-11-24 03:40:00+00:00,284.0,281.0,10.62,12.32,,47.59359,-54.27349
2018-11-24 03:50:00+00:00,284.0,282.0,10.95,12.9,,47.59359,-54.27349
2018-11-24 04:00:00+00:00,281.0,286.0,11.69,14.14,,47.59359,-54.27349
2018-11-24 04:10:00+00:00,278.0,276.0,10.73,13.43,,47.59359,-54.27349
2018-11-24 04:20:00+00:00,279.0,275.0,11.57,13.29,,47.59359,-54.27349
2018-11-24 04:30:00+00:00,273.0,278.0,11.82,13.12,,47.59359,-54.27349
2018-11-24 04:40:00+00:00,294.0,296.0,12.49,14.57,,47.59359,-54.27349
2018-11-24 04:50:00+00:00,296.0,300.0,10.91,12.63,,47.59359,-54.27349
2018-11-24 05:00:00+00:00,295.0,295.0,10.98,13.96,,47.59359,-54.27349
2018-11-24 05:10:00+00:00,275.0,263.0,10.25,11.8,,47.59359,-54.27349
2018-11-24 05:20:00+00:00,287.0,292.0,12.32,15.47,,47.59359,-54.27349
2018-11-24 05:30:00+00:00,290.0,295.0,14.92,17.92,,47.59359,-54.27349
2018-11-24 05:40:00+00:00,289.0,293.0,16.14,18.34,,47.59359,-54.27349
2018-11-24 05:50:00+00:00,281.0,288.0,13.81,16.61,,47.59359,-54.27349
2018-11-24 06:00:00+00:00,284.0,274.0,9.77,13.82,,47.59359,-54.27349
2018-11-24 06:10:00+00:00,275.0,281.0,11.58,13.88,,47.59359,-54.27349
2018-11-24 06:20:00+00:00,278.0,276.0,13.42,15.84,,47.59359,-54.27349
2018-11-24 06:30:00+00:00,261.0,258.0,10.0,12.67,,47.59359,-54.27349
2018-11-24 06:40:00+00:00,272.0,264.0,12.63,14.8,,47.59359,-54.27349
2018-11-24 06:50:00+00:00,269.0,276.0,11.94,14.37,,47.59359,-54.27349
2018-11-24 07:00:00+00:00,271.0,264.0,12.56,14.73,,47.59359,-54.27349
2018-11-24 07:10:00+00:00,278.0,274.0,12.03,13.88,,47.59359,-54.27349
2018-11-24 07:20:00+00:00,282.0,285.0,14.14,16.9,,47.59359,-54.27349
2018-11-24 07:30:00+00:00,274.0,266.0,11.71,14.1,,47.59359,-54.27349
2018-11-24 07:40:00+00:00,277.0,282.0,14.81,18.21,,47.59359,-54.27349
2018-11-24 07:50:00+00:00,269.0,273.0,13.96,15.24,,47.59359,-54.27349
2018-11-24 08:00:00+00:00,274.0,266.0,14.01,16.6,,47.59359,-54.27349
2018-11-24 08:10:00+00:00,275.0,286.0,15.06,16.86,,47.59359,-54.27349
2018-11-24 08:20:00+00:00,270.0,267.0,14.52,18.75,,47.59359,-54.27349
2018-11-24 08:30:00+00:00,274.0,272.0,16.24,18.55,,47.59359,-54.27349
2018-11-24 08:40:00+00:00,279.0,276.0,15.99,18.04,,47.59359,-54.27349
2018-11-24 08:50:00+00:00,281.0,285.0,16.98,19.61,,47.59359,-54.27349
2018-11-24 09:00:00+00:00,279.0,285.0,18.44,22.01,,47.59359,-54.27349
2018-11-24 09:10:00+00:00,276.0,273.0,16.46,18.48,,47.59359,-54.27349
2018-11-24 09:20:00+00:00,288.0,297.0,17.08,21.57,,47.59359,-54.27349
2018-11-24 09:30:00+00:00,281.0,281.0,16.99,21.16,,47.59359,-54.27349
2018-11-24 09:40:00+00:00,287.0,293.0,17.38,20.57,,47.59359,-54.27349
2018-11-24 09:50:00+00:00,285.0,293.0,14.92,19.14,,47.59359,-54.27349
2018-11-24 10:00:00+00:00,282.0,284.0,15.33,19.71,,47.59359,-54.27349
2018-11-24 10:10:00+00:00,288.0,293.0,18.45,23.37,,47.59359,-54.27349
2018-11-24 10:20:00+00:00,273.0,278.0,18.42,22.84,,47.59359,-54.27349
2018-11-24 10:30:00+00:00,283.0,277.0,17.03,23.44,,47.59359,-54.27349
2018-11-24 10:40:00+00:00,276.0,278.0,18.47,22.74,,47.59359,-54.27349
2018-11-24 10:50:00+00:00,270.0,271.0,17.46,21.37,,47.59359,-54.27349
2018-11-24 11:00:00+00:00,278.0,279.0,18.3,21.85,,47.59359,-54.27349
2018-11-24 11:10:00+00:00,287.0,291.0,14.96,17.1,,47.59359,-54.27349
2018-11-24 11:20:00+00:00,291.0,285.0,14.03,17.22,,47.59359,-54.27349
2018-11-24 11:30:00+00:00,291.0,293.0,12.31,14.53,,47.59359,-54.27349
2018-11-24 11:40:00+00:00,297.0,301.0,14.13,16.6,,47.59359,-54.27349
2018-11-24 11:50:00+00:00,309.0,316.0,14.43,18.11,,47.59359,-54.27349
2018-11-24 12:00:00+00:00,308.0,309.0,21.36,24.89,,47.59359,-54.27349
2018-11-24 12:10:00+00:00,312.0,310.0,17.91,21.65,,47.59359,-54.27349
2018-11-24 12:20:00+00:00,307.0,308.0,16.01,18.39,,47.59359,-54.27349
2018-11-24 12:30:00+00:00,298.0,307.0,15.52,17.92,,47.59359,-54.27349
2018-11-24 12:40:00+00:00,296.0,303.0,14.88,17.7,,47.59359,-54.27349
2018-11-24 12:50:00+00:00,290.0,284.0,13.04,15.67,,47.59359,-54.27349
2018-11-24 13:00:00+00:00,301.0,304.0,14.71,18.68,,47.59359,-54.27349
2018-11-24 13:10:00+00:00,300.0,310.0,16.69,19.97,,47.59359,-54.27349
2018-11-24 13:20:00+00:00,310.0,311.0,15.36,19.1,,47.59359,-54.27349
2018-11-24 13:30:00+00:00,298.0,300.0,15.7,20.26,,47.59359,-54.27349
2018-11-24 13:40:00+00:00,315.0,312.0,18.15,21.19,,47.59359,-54.27349
2018-11-24 13:50:00+00:00,315.0,322.0,18.9,25.82,,47.59359,-54.27349
2018-11-24 14:00:00+00:00,310.0,309.0,18.24,22.2,,47.59359,-54.27349
2018-11-24 14:10:00+00:00,304.0,311.0,18.37,21.15,,47.59359,-54.27349
2018-11-24 14:20:00+00:00,310.0,310.0,18.8,21.37,,47.59359,-54.27349
2018-11-24 14:30:00+00:00,298.0,297.0,17.39,20.18,,47.59359,-54.27349
2018-11-24 14:40:00+00:00,296.0,304.0,16.64,20.98,,47.59359,-54.27349
2018-11-24 14:50:00+00:00,302.0,311.0,15.72,21.52,,47.59359,-54.27349
2018-11-24 15:00:00+00:00,307.0,308.0,12.78,16.32,,47.59359,-54.27349
2018-11-24 15:10:00+00:00,311.0,312.0,16.41,19.34,,47.59359,-54.27349
2018-11-24 15:20:00+00:00,313.0,312.0,15.3,17.86,,47.59359,-54.27349
2018-11-24 15:30:00+00:00,310.0,312.0,14.0,16.96,,47.59359,-54.27349
2018-11-24 15:40:00+00:00,305.0,302.0,14.03,16.71,,47.59359,-54.27349
2018-11-24 15:50:00+00:00,312.0,311.0,13.07,15.46,,47.59359,-54.27349
2018-11-24 16:00:00+00:00,295.0,300.0,16.12,19.43,,47.59359,-54.27349
2018-11-24 16:10:00+00:00,311.0,320.0,13.35,18.19,,47.59359,-54.27349
2018-11-24 16:20:00+00:00,307.0,302.0,11.23,14.16,,47.59359,-54.27349
2018-11-24 16:30:00+00:00,302.0,303.0,10.62,12.02,,47.59359,-54.27349
2018-11-24 16:40:00+00:00,311.0,319.0,10.63,14.54,,47.59359,-54.27349
2018-11-24 16:50:00+00:00,306.0,310.0,10.2,14.33,,47.59359,-54.27349
2018-11-24 17:00:00+00:00,307.0,304.0,12.65,14.81,,47.59359,-54.27349
2018-11-24 17:10:00+00:00,301.0,304.0,12.44,15.28,,47.59359,-54.27349
2018-11-24 17:20:00+00:00,303.0,297.0,12.2,13.45,,47.59359,-54.27349
2018-11-24 17:30:00+00:00,306.0,296.0,12.45,15.06,,47.59359,-54.27349
2018-11-24 17:40:00+00:00,310.0,310.0,13.33,16.3,,47.59359,-54.27349
2018-11-24 17:50:00+00:00,312.0,320.0,12.06,16.2,,47.59359,-54.27349
2018-11-24 18:00:00+00:00,303.0,305.0,11.82,14.07,,47.59359,-54.27349
2018-11-24 18:10:00+00:00,303.0,305.0,12.88,15.21,,47.59359,-54.27349
2018-11-24 18:20:00+00:00,315.0,320.0,9.68,11.27,,47.59359,-54.27349
2018-11-24 18:30:00+00:00,318.0,322.0,8.44,11.37,,47.59359,-54.27349
2018-11-24 18:40:00+00:00,316.0,321.0,9.21,10.73,,47.59359,-54.27349
2018-11-24 18:50:00+00:00,312.0,319.0,8.39,9.92,,47.59359,-54.27349
2018-11-24 19:00:00+00:00,308.0,310.0,9.52,12.03,,47.59359,-54.27349
2018-11-24 19:10:00+00:00,319.0,315.0,9.63,12.64,,47.59359,-54.27349
2018-11-24 19:20:00+00:00,316.0,310.0,8.34,10.0,,47.59359,-54.27349
2018-11-24 19:30:00+00:00,317.0,319.0,7.97,8.86,,47.59359,-54.27349
2018-11-24 19:40:00+00:00,305.0,322.0,7.89,9.55,,47.59359,-54.27349
2018-11-24 19:50:00+00:00,330.0,333.0,7.74,9.33,,47.59359,-54.27349
2018-11-24 20:00:00+00:00,316.0,313.0,7.41,8.64,,47.59359,-54.27349
2018-11-24 20:10:00+00:00,309.0,314.0,8.63,10.07,,47.59359,-54.27349
2018-11-24 20:20:00+00:00,314.0,319.0,9.39,10.41,,47.59359,-54.27349
2018-11-24 20:30:00+00:00,307.0,304.0,9.19,10.55,,47.59359,-54.27349
2018-11-24 20:40:00+00:00,317.0,325.0,9.23,11.22,,47.59359,-54.27349
2018-11-24 20:50:00+00:00,323.0,325.0,8.24,8.96,,47.59359,-54.27349
2018-11-24 21:00:00+00:00,318.0,320.0,7.37,8.85,,47.59359,-54.27349
2018-11-24 21:10:00+00:00,315.0,318.0,10.18,11.86,,47.59359,-54.27349
2018-11-24 21:20:00+00:00,317.0,321.0,9.57,10.93,,47.59359,-54.27349
2018-11-24 21:30:00+00:00,310.0,306.0,8.09,10.0,,47.59359,-54.27349
2018-11-24 21:40:00+00:00,311.0,322.0,11.09,15.77,,47.59359,-54.27349
2018-11-24 21:50:00+00:00,311.0,313.0,9.88,12.14,,47.59359,-54.27349
2018-11-24 22:00:00+00:00,308.0,306.0,10.33,12.35,,47.59359,-54.27349
2018-11-24 22:10:00+00:00,317.0,316.0,10.38,12.94,,47.59359,-54.27349
2018-11-24 22:20:00+00:00,316.0,309.0,9.37,10.89,,47.59359,-54.27349
2018-11-24 22:30:00+00:00,317.0,324.0,10.26,12.99,,47.59359,-54.27349
2018-11-24 22:40:00+00:00,318.0,320.0,11.32,13.27,,47.59359,-54.27349
2018-11-24 22:50:00+00:00,319.0,321.0,9.56,10.65,,47.59359,-54.27349
2018-11-24 23:00:00+00:00,322.0,323.0,11.26,13.15,,47.59359,-54.27349
2018-11-24 23:10:00+00:00,320.0,321.0,10.39,13.56,,47.59359,-54.27349
2018-11-24 23:20:00+00:00,311.0,306.0,10.42,12.56,,47.59359,-54.27349
2018-11-24 23:30:00+00:00,321.0,328.0,11.05,12.57,,47.59359,-54.27349
2018-11-24 23:40:00+00:00,316.0,317.0,9.31,10.67,,47.59359,-54.27349
2018-11-24 23:50:00+00:00,317.0,315.0,9.24,10.67,,47.59359,-54.27349
